Time,TemperatureF,DewpointF,PressureIn,WindDirection,WindDirectionDegrees,WindSpeedMPH,WindSpeedGustMPH,Humidity,HourlyPrecipIn,Conditions,Clouds,dailyrainin,SoftwareType,DateUTC
2013-09-18 00:00:00,45.1,42.9,30.34,NNW,337,0.0,0.0,92,0.00,,,0.00,VWS V14.01,2013-09-18 04:00:00,
2013-09-18 00:01:00,45.1,42.9,30.34,NNW,337,0.0,0.0,92,0.00,,,0.00,VWS V14.01,2013-09-18 04:01:00,
2013-09-18 00:02:00,45.1,42.9,30.34,NNW,337,0.0,0.0,92,0.00,,,0.00,VWS V14.01,2013-09-18 04:02:00,
2013-09-18 00:07:00,44.9,42.7,30.34,NNW,337,0.0,0.0,92,0.00,,,0.00,VWS V14.01,2013-09-18 04:07:00,
2013-09-18 00:10:00,44.9,42.7,30.34,NNW,337,0.0,0.0,92,0.00,,,0.00,VWS V14.01,2013-09-18 04:10:00,
2013-09-18 00:12:00,44.9,42.7,30.34,NNW,337,0.0,0.0,92,0.00,,,0.00,VWS V14.01,2013-09-18 04:12:00,
2013-09-18 00:17:00,44.9,42.7,30.35,NNW,337,0.0,0.0,92,0.00,,,0.00,VWS V14.01,2013-09-18 04:17:00,
2013-09-18 00:20:00,44.7,42.5,30.35,NNW,337,0.0,0.0,92,0.00,,,0.00,VWS V14.01,2013-09-18 04:20:00,
2013-09-18 00:22:00,44.8,42.6,30.35,NNW,337,0.0,0.0,92,0.00,,,0.00,VWS V14.01,2013-09-18 04:22:00,
2013-09-18 00:27:00,44.7,42.5,30.35,NNW,337,0.0,0.0,92,0.00,,,0.00,VWS V14.01,2013-09-18 04:27:00,
2013-09-18 00:30:00,44.6,42.4,30.34,NNW,337,0.0,0.0,92,0.00,,,0.00,VWS V14.01,2013-09-18 04:30:00,
2013-09-18 00:32:00,44.6,42.4,30.34,NNW,337,0.0,0.0,92,0.00,,,0.00,VWS V14.01,2013-09-18 04:32:00,
2013-09-18 00:37:00,44.6,42.4,30.34,NNW,337,0.0,0.0,92,0.00,,,0.00,VWS V14.01,2013-09-18 04:37:00,
2013-09-18 00:40:00,44.5,42.3,30.34,NNW,337,0.0,0.0,92,0.00,,,0.00,VWS V14.01,2013-09-18 04:40:00,
2013-09-18 00:42:00,44.5,42.3,30.34,NNW,337,0.0,0.0,92,0.00,,,0.00,VWS V14.01,2013-09-18 04:42:00,
2013-09-18 00:47:00,44.4,42.2,30.34,NNW,337,0.0,0.0,92,0.00,,,0.00,VWS V14.01,2013-09-18 04:47:00,
2013-09-18 00:50:00,44.4,42.2,30.34,NNW,337,0.0,0.0,92,0.00,,,0.00,VWS V14.01,2013-09-18 04:50:00,
2013-09-18 00:52:00,44.3,42.1,30.34,NNW,337,0.0,0.0,92,0.00,,,0.00,VWS V14.01,2013-09-18 04:52:00,
2013-09-18 00:57:00,44.3,42.4,30.34,NNW,337,0.0,0.0,93,0.00,,,0.00,VWS V14.01,2013-09-18 04:57:00,
2013-09-18 01:00:00,44.3,42.4,30.34,NNW,337,0.0,0.0,93,0.00,,,0.00,VWS V14.01,2013-09-18 05:00:00,
2013-09-18 01:02:00,44.3,42.4,30.34,NNW,337,0.0,0.0,93,0.00,,,0.00,VWS V14.01,2013-09-18 05:02:00,
2013-09-18 01:07:00,44.2,42.3,30.34,NNW,337,0.0,0.0,93,0.00,,,0.00,VWS V14.01,2013-09-18 05:07:00,
2013-09-18 01:10:00,44.2,42.3,30.34,NNW,337,0.0,0.0,93,0.00,,,0.00,VWS V14.01,2013-09-18 05:10:00,
2013-09-18 01:12:00,44.2,42.3,30.34,NNW,337,0.0,0.0,93,0.00,,,0.00,VWS V14.01,2013-09-18 05:12:00,
2013-09-18 01:17:00,44.1,42.2,30.35,NNW,337,0.0,0.0,93,0.00,,,0.00,VWS V14.01,2013-09-18 05:17:00,
2013-09-18 01:20:00,44.1,42.2,30.35,NNW,337,0.0,0.0,93,0.00,,,0.00,VWS V14.01,2013-09-18 05:20:00,
2013-09-18 01:22:00,44.1,42.2,30.35,NNW,337,0.0,0.0,93,0.00,,,0.00,VWS V14.01,2013-09-18 05:22:00,
2013-09-18 01:27:00,44.0,42.1,30.35,NNW,337,0.0,0.0,93,0.00,,,0.00,VWS V14.01,2013-09-18 05:27:00,
2013-09-18 01:30:00,43.9,42.0,30.34,NNW,337,0.0,0.0,93,0.00,,,0.00,VWS V14.01,2013-09-18 05:30:00,
2013-09-18 01:31:00,43.9,42.0,30.34,NNW,337,0.0,0.0,93,0.00,,,0.00,VWS V14.01,2013-09-18 05:31:00,
2013-09-18 01:36:00,43.8,41.9,30.34,NNW,337,0.0,0.0,93,0.00,,,0.00,VWS V14.01,2013-09-18 05:36:00,
2013-09-18 01:40:00,43.7,41.8,30.34,NNW,337,0.0,0.0,93,0.00,,,0.00,VWS V14.01,2013-09-18 05:40:00,
2013-09-18 01:41:00,43.7,41.8,30.34,NNW,337,0.0,0.0,93,0.00,,,0.00,VWS V14.01,2013-09-18 05:41:00,
2013-09-18 01:46:00,43.7,41.8,30.34,NNW,337,0.0,0.0,93,0.00,,,0.00,VWS V14.01,2013-09-18 05:46:00,
2013-09-18 01:50:00,43.6,41.7,30.34,NNW,337,0.0,0.0,93,0.00,,,0.00,VWS V14.01,2013-09-18 05:50:00,
2013-09-18 01:51:00,43.6,41.7,30.34,NNW,337,0.0,0.0,93,0.00,,,0.00,VWS V14.01,2013-09-18 05:51:00,
2013-09-18 01:56:00,43.6,41.7,30.34,NNW,337,0.0,0.0,93,0.00,,,0.00,VWS V14.01,2013-09-18 05:56:00,
2013-09-18 02:00:00,43.5,41.6,30.34,NNW,337,0.0,0.0,93,0.00,,,0.00,VWS V14.01,2013-09-18 06:00:00,
2013-09-18 02:01:00,43.5,41.6,30.34,NNW,337,0.0,0.0,93,0.00,,,0.00,VWS V14.01,2013-09-18 06:01:00,
2013-09-18 02:06:00,43.4,41.5,30.34,NNW,337,0.0,0.0,93,0.00,,,0.00,VWS V14.01,2013-09-18 06:06:00,
2013-09-18 02:10:00,43.4,41.5,30.34,NNW,337,0.0,0.0,93,0.00,,,0.00,VWS V14.01,2013-09-18 06:10:00,
2013-09-18 02:11:00,43.4,41.5,30.34,NNW,337,0.0,0.0,93,0.00,,,0.00,VWS V14.01,2013-09-18 06:11:00,
2013-09-18 02:16:00,43.4,41.5,30.34,NNW,337,0.0,0.0,93,0.00,,,0.00,VWS V14.01,2013-09-18 06:16:00,
2013-09-18 02:20:00,43.3,41.4,30.34,NNW,337,0.0,0.0,93,0.00,,,0.00,VWS V14.01,2013-09-18 06:20:00,
2013-09-18 02:21:00,43.3,41.4,30.34,NNW,337,0.0,0.0,93,0.00,,,0.00,VWS V14.01,2013-09-18 06:21:00,
2013-09-18 02:26:00,43.2,41.3,30.34,NNW,337,0.0,0.0,93,0.00,,,0.00,VWS V14.01,2013-09-18 06:26:00,
2013-09-18 02:30:00,43.2,41.3,30.33,NNW,337,0.0,0.0,93,0.00,,,0.00,VWS V14.01,2013-09-18 06:30:00,
2013-09-18 02:31:00,43.2,41.3,30.33,NNW,337,0.0,0.0,93,0.00,,,0.00,VWS V14.01,2013-09-18 06:31:00,
2013-09-18 02:36:00,43.1,41.2,30.33,NNW,337,0.0,0.0,93,0.00,,,0.00,VWS V14.01,2013-09-18 06:36:00,
2013-09-18 02:40:00,43.0,41.1,30.33,NNW,337,0.0,0.0,93,0.00,,,0.00,VWS V14.01,2013-09-18 06:40:00,
2013-09-18 02:41:00,43.1,41.2,30.33,NNW,337,0.0,0.0,93,0.00,,,0.00,VWS V14.01,2013-09-18 06:41:00,
2013-09-18 02:46:00,43.0,41.1,30.33,NNW,337,0.0,0.0,93,0.00,,,0.00,VWS V14.01,2013-09-18 06:46:00,
2013-09-18 02:50:00,42.9,41.0,30.33,NNW,337,0.0,0.0,93,0.00,,,0.00,VWS V14.01,2013-09-18 06:50:00,
2013-09-18 02:51:00,43.0,41.1,30.33,NNW,337,0.0,0.0,93,0.00,,,0.00,VWS V14.01,2013-09-18 06:51:00,
2013-09-18 02:56:00,42.9,41.0,30.33,NNW,337,0.0,0.0,93,0.00,,,0.00,VWS V14.01,2013-09-18 06:56:00,
2013-09-18 03:00:00,42.9,41.0,30.33,NNW,337,0.0,0.0,93,0.00,,,0.00,VWS V14.01,2013-09-18 07:00:00,
2013-09-18 03:01:00,42.9,41.0,30.33,NNW,337,0.0,0.0,93,0.00,,,0.00,VWS V14.01,2013-09-18 07:01:00,
2013-09-18 03:06:00,42.8,41.2,30.33,NNW,337,0.0,0.0,94,0.00,,,0.00,VWS V14.01,2013-09-18 07:06:00,
2013-09-18 03:10:00,42.8,41.2,30.33,NNW,337,0.0,0.0,94,0.00,,,0.00,VWS V14.01,2013-09-18 07:10:00,
2013-09-18 03:11:00,42.8,41.2,30.33,NNW,337,0.0,0.0,94,0.00,,,0.00,VWS V14.01,2013-09-18 07:11:00,
2013-09-18 03:16:00,42.7,41.1,30.33,NNW,337,0.0,0.0,94,0.00,,,0.00,VWS V14.01,2013-09-18 07:16:00,
2013-09-18 03:20:00,42.7,41.1,30.33,NNW,337,0.0,0.0,94,0.00,,,0.00,VWS V14.01,2013-09-18 07:20:00,
2013-09-18 03:21:00,42.7,41.1,30.33,NNW,337,0.0,0.0,94,0.00,,,0.00,VWS V14.01,2013-09-18 07:21:00,
2013-09-18 03:26:00,42.7,41.1,30.33,NNW,337,0.0,0.0,94,0.00,,,0.00,VWS V14.01,2013-09-18 07:26:00,
2013-09-18 03:30:00,42.7,41.1,30.33,NNW,337,0.0,0.0,94,0.00,,,0.00,VWS V14.01,2013-09-18 07:30:00,
2013-09-18 03:31:00,42.7,41.1,30.33,NNW,337,0.0,0.0,94,0.00,,,0.00,VWS V14.01,2013-09-18 07:31:00,
2013-09-18 03:36:00,42.6,41.0,30.33,NNW,337,0.0,0.0,94,0.00,,,0.00,VWS V14.01,2013-09-18 07:36:00,
2013-09-18 03:40:00,42.6,41.0,30.33,NNW,337,0.0,0.0,94,0.00,,,0.00,VWS V14.01,2013-09-18 07:40:00,
2013-09-18 03:41:00,42.6,41.0,30.33,NNW,337,0.0,0.0,94,0.00,,,0.00,VWS V14.01,2013-09-18 07:41:00,
2013-09-18 03:46:00,42.5,40.9,30.33,NNW,337,0.0,0.0,94,0.00,,,0.00,VWS V14.01,2013-09-18 07:46:00,
2013-09-18 03:50:00,42.6,41.0,30.33,NNW,337,0.0,0.0,94,0.00,,,0.00,VWS V14.01,2013-09-18 07:50:00,
2013-09-18 03:51:00,42.6,41.0,30.33,NNW,337,0.0,0.0,94,0.00,,,0.00,VWS V14.01,2013-09-18 07:51:00,
2013-09-18 03:56:00,42.6,41.0,30.33,NNW,337,0.0,0.0,94,0.00,,,0.00,VWS V14.01,2013-09-18 07:56:00,
2013-09-18 04:00:00,42.6,41.0,30.32,NNW,337,0.0,0.0,94,0.00,,,0.00,VWS V14.01,2013-09-18 08:00:00,
2013-09-18 04:01:00,42.5,40.9,30.32,NNW,337,0.0,0.0,94,0.00,,,0.00,VWS V14.01,2013-09-18 08:01:00,
2013-09-18 04:06:00,42.5,40.9,30.32,NNW,337,0.0,0.0,94,0.00,,,0.00,VWS V14.01,2013-09-18 08:06:00,
2013-09-18 04:10:00,42.5,40.9,30.32,NNW,337,0.0,0.0,94,0.00,,,0.00,VWS V14.01,2013-09-18 08:10:00,
2013-09-18 04:11:00,42.5,40.9,30.32,NNW,337,0.0,0.0,94,0.00,,,0.00,VWS V14.01,2013-09-18 08:11:00,
2013-09-18 04:16:00,42.4,40.8,30.32,NNW,337,0.0,0.0,94,0.00,,,0.00,VWS V14.01,2013-09-18 08:16:00,
2013-09-18 04:20:00,42.4,40.8,30.32,NNW,337,0.0,0.0,94,0.00,,,0.00,VWS V14.01,2013-09-18 08:20:00,
2013-09-18 04:21:00,42.4,40.8,30.32,NNW,337,0.0,0.0,94,0.00,,,0.00,VWS V14.01,2013-09-18 08:21:00,
2013-09-18 04:26:00,42.3,40.7,30.32,NNW,337,0.0,0.0,94,0.00,,,0.00,VWS V14.01,2013-09-18 08:26:00,
2013-09-18 04:30:00,42.3,40.7,30.32,NNW,337,0.0,0.0,94,0.00,,,0.00,VWS V14.01,2013-09-18 08:30:00,
2013-09-18 04:31:00,42.3,40.7,30.32,NNW,337,0.0,0.0,94,0.00,,,0.00,VWS V14.01,2013-09-18 08:31:00,
2013-09-18 04:36:00,42.2,40.6,30.32,NNW,337,0.0,0.0,94,0.00,,,0.00,VWS V14.01,2013-09-18 08:36:00,
2013-09-18 04:40:00,42.2,40.6,30.32,NNW,337,0.0,0.0,94,0.00,,,0.00,VWS V14.01,2013-09-18 08:40:00,
2013-09-18 04:41:00,42.2,40.6,30.32,NNW,337,0.0,0.0,94,0.00,,,0.00,VWS V14.01,2013-09-18 08:41:00,
2013-09-18 04:46:00,42.1,40.5,30.32,NNW,337,0.0,0.0,94,0.00,,,0.00,VWS V14.01,2013-09-18 08:46:00,
2013-09-18 04:50:00,42.0,40.4,30.32,NNW,337,0.0,0.0,94,0.00,,,0.00,VWS V14.01,2013-09-18 08:50:00,
2013-09-18 04:51:00,42.1,40.5,30.32,NNW,337,0.0,0.0,94,0.00,,,0.00,VWS V14.01,2013-09-18 08:51:00,
2013-09-18 04:56:00,42.0,40.4,30.32,NNW,337,0.0,0.0,94,0.00,,,0.00,VWS V14.01,2013-09-18 08:56:00,
2013-09-18 05:00:00,41.9,40.3,30.32,NNW,337,0.0,0.0,94,0.00,,,0.00,VWS V14.01,2013-09-18 09:00:00,
2013-09-18 05:01:00,41.9,40.3,30.32,NNW,337,0.0,0.0,94,0.00,,,0.00,VWS V14.01,2013-09-18 09:01:00,
2013-09-18 05:06:00,41.9,40.3,30.32,NNW,337,0.0,0.0,94,0.00,,,0.00,VWS V14.01,2013-09-18 09:06:00,
2013-09-18 05:10:00,41.9,40.3,30.32,NNW,337,0.0,0.0,94,0.00,,,0.00,VWS V14.01,2013-09-18 09:10:00,
2013-09-18 05:11:00,41.9,40.3,30.32,NNW,337,0.0,0.0,94,0.00,,,0.00,VWS V14.01,2013-09-18 09:11:00,
2013-09-18 05:16:00,41.8,40.2,30.32,NNW,337,0.0,0.0,94,0.00,,,0.00,VWS V14.01,2013-09-18 09:16:00,
2013-09-18 05:20:00,41.8,40.2,30.32,NNW,337,0.0,0.0,94,0.00,,,0.00,VWS V14.01,2013-09-18 09:20:00,
2013-09-18 05:21:00,41.8,40.2,30.32,NNW,337,0.0,0.0,94,0.00,,,0.00,VWS V14.01,2013-09-18 09:21:00,
2013-09-18 05:26:00,41.8,40.2,30.32,NNW,337,0.0,0.0,94,0.00,,,0.00,VWS V14.01,2013-09-18 09:26:00,
2013-09-18 05:30:00,41.7,40.1,30.32,NNW,337,0.0,0.0,94,0.00,,,0.00,VWS V14.01,2013-09-18 09:30:00,
2013-09-18 05:31:00,41.7,40.1,30.32,NNW,337,0.0,0.0,94,0.00,,,0.00,VWS V14.01,2013-09-18 09:31:00,
2013-09-18 05:36:00,41.7,40.1,30.32,NNW,337,0.0,0.0,94,0.00,,,0.00,VWS V14.01,2013-09-18 09:36:00,
2013-09-18 05:40:00,41.7,40.1,30.32,NNW,337,0.0,0.0,94,0.00,,,0.00,VWS V14.01,2013-09-18 09:40:00,
2013-09-18 05:41:00,41.7,40.1,30.32,NNW,337,0.0,0.0,94,0.00,,,0.00,VWS V14.01,2013-09-18 09:41:00,
2013-09-18 05:46:00,41.7,40.1,30.32,NNW,337,0.0,0.0,94,0.00,,,0.00,VWS V14.01,2013-09-18 09:46:00,
2013-09-18 05:50:00,41.6,40.0,30.32,NNW,337,0.0,0.0,94,0.00,,,0.00,VWS V14.01,2013-09-18 09:50:00,
2013-09-18 05:51:00,41.6,40.0,30.32,NNW,337,0.0,0.0,94,0.00,,,0.00,VWS V14.01,2013-09-18 09:51:00,
2013-09-18 05:56:00,41.7,40.1,30.32,NNW,337,0.0,0.0,94,0.00,,,0.00,VWS V14.01,2013-09-18 09:56:00,
2013-09-18 06:00:00,41.6,40.0,30.32,NNW,337,0.0,0.0,94,0.00,,,0.00,VWS V14.01,2013-09-18 10:00:00,
2013-09-18 06:01:00,41.6,40.0,30.32,NNW,337,0.0,0.0,94,0.00,,,0.00,VWS V14.01,2013-09-18 10:01:00,
2013-09-18 06:06:00,41.6,40.0,30.32,NNW,337,0.0,0.0,94,0.00,,,0.00,VWS V14.01,2013-09-18 10:06:00,
2013-09-18 06:10:00,41.6,40.0,30.32,NNW,337,0.0,0.0,94,0.00,,,0.00,VWS V14.01,2013-09-18 10:10:00,
2013-09-18 06:11:00,41.6,40.0,30.32,NNW,337,0.0,0.0,94,0.00,,,0.00,VWS V14.01,2013-09-18 10:11:00,
2013-09-18 06:16:00,41.6,40.0,30.32,NNW,337,0.0,0.0,94,0.00,,,0.00,VWS V14.01,2013-09-18 10:16:00,
2013-09-18 06:20:00,41.6,40.0,30.32,NNW,337,0.0,0.0,94,0.00,,,0.00,VWS V14.01,2013-09-18 10:20:00,
2013-09-18 06:21:00,41.6,40.0,30.32,NNW,337,0.0,0.0,94,0.00,,,0.00,VWS V14.01,2013-09-18 10:21:00,
2013-09-18 06:26:00,41.5,39.9,30.32,NNW,337,0.0,0.0,94,0.00,,,0.00,VWS V14.01,2013-09-18 10:26:00,
2013-09-18 06:30:00,41.5,39.9,30.32,NNW,337,0.0,0.0,94,0.00,,,0.00,VWS V14.01,2013-09-18 10:30:00,
2013-09-18 06:31:00,41.5,39.9,30.32,NNW,337,0.0,0.0,94,0.00,,,0.00,VWS V14.01,2013-09-18 10:31:00,
2013-09-18 06:36:00,41.4,39.8,30.32,NNW,337,0.0,0.0,94,0.00,,,0.00,VWS V14.01,2013-09-18 10:36:00,
2013-09-18 06:40:00,41.4,40.1,30.32,NNW,337,0.0,0.0,95,0.00,,,0.00,VWS V14.01,2013-09-18 10:40:00,
2013-09-18 06:41:00,41.4,40.1,30.32,NNW,337,0.0,0.0,95,0.00,,,0.00,VWS V14.01,2013-09-18 10:41:00,
2013-09-18 06:46:00,41.4,40.1,30.32,NNW,337,0.0,0.0,95,0.00,,,0.00,VWS V14.01,2013-09-18 10:46:00,
2013-09-18 06:50:00,41.4,40.1,30.32,NNW,337,0.0,0.0,95,0.00,,,0.00,VWS V14.01,2013-09-18 10:50:00,
2013-09-18 06:51:00,41.4,40.1,30.32,NNW,337,0.0,0.0,95,0.00,,,0.00,VWS V14.01,2013-09-18 10:51:00,
2013-09-18 06:56:00,41.3,40.0,30.32,NNW,337,0.0,0.0,95,0.00,,,0.00,VWS V14.01,2013-09-18 10:56:00,
2013-09-18 07:00:00,41.4,40.1,30.33,NNW,337,0.0,0.0,95,0.00,,,0.00,VWS V14.01,2013-09-18 11:00:00,
2013-09-18 07:01:00,41.4,40.1,30.33,NNW,337,0.0,0.0,95,0.00,,,0.00,VWS V14.01,2013-09-18 11:01:00,
2013-09-18 07:06:00,41.4,40.1,30.33,NNW,337,0.0,0.0,95,0.00,,,0.00,VWS V14.01,2013-09-18 11:06:00,
2013-09-18 07:10:00,41.4,40.1,30.33,NNW,337,0.0,0.0,95,0.00,,,0.00,VWS V14.01,2013-09-18 11:10:00,
2013-09-18 07:11:00,41.4,40.1,30.33,NNW,337,0.0,0.0,95,0.00,,,0.00,VWS V14.01,2013-09-18 11:11:00,
2013-09-18 07:16:00,41.5,40.2,30.33,NNW,337,0.0,0.0,95,0.00,,,0.00,VWS V14.01,2013-09-18 11:16:00,
2013-09-18 07:20:00,41.6,40.3,30.33,NNW,337,0.0,0.0,95,0.00,,,0.00,VWS V14.01,2013-09-18 11:20:00,
2013-09-18 07:21:00,41.5,40.2,30.33,NNW,337,0.0,0.0,95,0.00,,,0.00,VWS V14.01,2013-09-18 11:21:00,
2013-09-18 07:26:00,41.7,40.4,30.33,NNW,337,0.0,0.0,95,0.00,,,0.00,VWS V14.01,2013-09-18 11:26:00,
2013-09-18 07:30:00,41.7,40.4,30.33,NNW,337,0.0,0.0,95,0.00,,,0.00,VWS V14.01,2013-09-18 11:30:00,
2013-09-18 07:31:00,41.7,40.4,30.33,NNW,337,0.0,0.0,95,0.00,,,0.00,VWS V14.01,2013-09-18 11:31:00,
2013-09-18 07:36:00,41.8,40.5,30.33,NNW,337,0.0,0.0,95,0.00,,,0.00,VWS V14.01,2013-09-18 11:36:00,
2013-09-18 07:40:00,41.9,40.6,30.33,NNW,337,0.0,0.0,95,0.00,,,0.00,VWS V14.01,2013-09-18 11:40:00,
2013-09-18 07:41:00,41.9,40.6,30.33,NNW,337,0.0,0.0,95,0.00,,,0.00,VWS V14.01,2013-09-18 11:41:00,
2013-09-18 07:46:00,42.0,40.7,30.33,NNW,337,0.0,0.0,95,0.00,,,0.00,VWS V14.01,2013-09-18 11:46:00,
2013-09-18 07:50:00,42.1,40.8,30.33,NNW,337,0.0,0.0,95,0.00,,,0.00,VWS V14.01,2013-09-18 11:50:00,
2013-09-18 07:51:00,42.1,40.8,30.33,NNW,337,0.0,0.0,95,0.00,,,0.00,VWS V14.01,2013-09-18 11:51:00,
2013-09-18 07:56:00,42.2,40.9,30.33,NNW,337,0.0,0.0,95,0.00,,,0.00,VWS V14.01,2013-09-18 11:56:00,
2013-09-18 08:00:00,42.3,41.0,30.33,NNW,337,0.0,0.0,95,0.00,,,0.00,VWS V14.01,2013-09-18 12:00:00,
2013-09-18 08:01:00,42.3,41.0,30.33,NNW,337,0.0,0.0,95,0.00,,,0.00,VWS V14.01,2013-09-18 12:01:00,
2013-09-18 08:06:00,42.5,41.2,30.33,NNW,337,0.0,0.0,95,0.00,,,0.00,VWS V14.01,2013-09-18 12:06:00,
2013-09-18 08:10:00,42.7,41.4,30.33,NNW,337,0.0,0.0,95,0.00,,,0.00,VWS V14.01,2013-09-18 12:10:00,
2013-09-18 08:11:00,42.7,41.4,30.33,NNW,337,0.0,0.0,95,0.00,,,0.00,VWS V14.01,2013-09-18 12:11:00,
2013-09-18 08:16:00,43.0,41.7,30.33,NNW,337,0.0,0.0,95,0.00,,,0.00,VWS V14.01,2013-09-18 12:16:00,
2013-09-18 08:20:00,43.3,42.0,30.33,NNW,337,0.0,0.0,95,0.00,,,0.00,VWS V14.01,2013-09-18 12:20:00,
2013-09-18 08:21:00,43.2,41.9,30.33,NNW,337,0.0,0.0,95,0.00,,,0.00,VWS V14.01,2013-09-18 12:21:00,
2013-09-18 08:26:00,43.6,42.5,30.33,NNW,337,0.0,0.0,96,0.00,,,0.00,VWS V14.01,2013-09-18 12:26:00,
2013-09-18 08:30:00,44.1,43.0,30.32,NNW,337,0.0,0.0,96,0.00,,,0.00,VWS V14.01,2013-09-18 12:30:00,
2013-09-18 08:31:00,44.1,43.0,30.32,NNW,337,0.0,0.0,96,0.00,,,0.00,VWS V14.01,2013-09-18 12:31:00,
2013-09-18 08:36:00,44.6,43.5,30.32,NNW,337,0.0,0.0,96,0.00,,,0.00,VWS V14.01,2013-09-18 12:36:00,
2013-09-18 08:40:00,45.0,43.9,30.32,NNW,337,0.0,0.0,96,0.00,,,0.00,VWS V14.01,2013-09-18 12:40:00,
2013-09-18 08:41:00,44.9,43.8,30.32,NNW,337,0.0,0.0,96,0.00,,,0.00,VWS V14.01,2013-09-18 12:41:00,
2013-09-18 08:46:00,45.5,44.4,30.32,NNW,337,0.0,0.0,96,0.00,,,0.00,VWS V14.01,2013-09-18 12:46:00,
2013-09-18 08:50:00,45.9,44.8,30.32,NNW,337,0.0,0.0,96,0.00,,,0.00,VWS V14.01,2013-09-18 12:50:00,
2013-09-18 08:51:00,45.9,44.8,30.32,NNW,337,0.0,0.0,96,0.00,,,0.00,VWS V14.01,2013-09-18 12:51:00,
2013-09-18 08:56:00,46.7,45.6,30.32,NNW,337,0.0,2.0,96,0.00,,,0.00,VWS V14.01,2013-09-18 12:56:00,
2013-09-18 09:00:00,47.1,46.0,30.32,NNW,337,1.0,2.0,96,0.00,,,0.00,VWS V14.01,2013-09-18 13:00:00,
2013-09-18 09:01:00,47.1,46.0,30.32,NNW,337,1.0,2.0,96,0.00,,,0.00,VWS V14.01,2013-09-18 13:01:00,
2013-09-18 09:06:00,47.7,46.6,30.32,NNW,337,0.0,1.0,96,0.00,,,0.00,VWS V14.01,2013-09-18 13:06:00,
2013-09-18 09:10:00,48.2,47.1,30.32,NNW,337,0.0,1.0,96,0.00,,,0.00,VWS V14.01,2013-09-18 13:10:00,
2013-09-18 09:11:00,48.2,47.1,30.32,NNW,337,0.0,1.0,96,0.00,,,0.00,VWS V14.01,2013-09-18 13:11:00,
2013-09-18 09:16:00,48.5,47.4,30.32,NNW,337,0.0,2.0,96,0.00,,,0.00,VWS V14.01,2013-09-18 13:16:00,
2013-09-18 09:20:00,48.7,47.6,30.32,NNW,337,0.0,2.0,96,0.00,,,0.00,VWS V14.01,2013-09-18 13:20:00,
2013-09-18 09:21:00,48.7,47.6,30.32,NNW,337,0.0,2.0,96,0.00,,,0.00,VWS V14.01,2013-09-18 13:21:00,
2013-09-18 09:26:00,48.7,47.6,30.32,NNW,336,0.0,4.0,96,0.00,,,0.00,VWS V14.01,2013-09-18 13:26:00,
2013-09-18 09:30:00,49.0,47.6,30.33,WNW,299,0.0,4.0,95,0.00,,,0.00,VWS V14.01,2013-09-18 13:30:00,
2013-09-18 09:31:00,49.0,47.6,30.33,WNW,299,0.0,4.0,95,0.00,,,0.00,VWS V14.01,2013-09-18 13:31:00,
2013-09-18 09:36:00,49.5,48.1,30.33,WNW,299,2.0,2.0,95,0.00,,,0.00,VWS V14.01,2013-09-18 13:36:00,
2013-09-18 09:40:00,50.3,48.9,30.33,NW,319,2.0,4.0,95,0.00,,,0.00,VWS V14.01,2013-09-18 13:40:00,
2013-09-18 09:41:00,50.2,48.8,30.33,NW,319,1.0,4.0,95,0.00,,,0.00,VWS V14.01,2013-09-18 13:41:00,
2013-09-18 09:46:00,51.2,49.2,30.33,NW,309,0.0,5.0,93,0.00,,,0.00,VWS V14.01,2013-09-18 13:46:00,
2013-09-18 09:50:00,51.9,49.4,30.33,NE,39,0.0,5.0,91,0.00,,,0.00,VWS V14.01,2013-09-18 13:50:00,
2013-09-18 09:51:00,51.9,49.4,30.33,NE,39,0.0,5.0,91,0.00,,,0.00,VWS V14.01,2013-09-18 13:51:00,
2013-09-18 09:56:00,52.8,49.7,30.33,West,277,2.0,4.0,89,0.00,,,0.00,VWS V14.01,2013-09-18 13:56:00,
2013-09-18 10:00:00,53.8,49.1,30.32,West,280,1.0,4.0,84,0.00,,,0.00,VWS V14.01,2013-09-18 14:00:00,
2013-09-18 10:01:00,53.9,49.2,30.32,West,280,1.0,1.0,84,0.00,,,0.00,VWS V14.01,2013-09-18 14:01:00,
2013-09-18 10:06:00,54.8,47.7,30.32,West,279,0.0,2.0,77,0.00,,,0.00,VWS V14.01,2013-09-18 14:06:00,
2013-09-18 10:10:00,55.8,47.3,30.32,SSE,167,0.0,2.0,73,0.00,,,0.00,VWS V14.01,2013-09-18 14:10:00,
2013-09-18 10:11:00,55.8,47.3,30.32,SSE,167,0.0,2.0,73,0.00,,,0.00,VWS V14.01,2013-09-18 14:11:00,
2013-09-18 10:16:00,56.9,47.2,30.32,North,9,0.0,5.0,70,0.00,,,0.00,VWS V14.01,2013-09-18 14:16:00,
2013-09-18 10:20:00,57.8,47.7,30.32,West,264,0.0,5.0,69,0.00,,,0.00,VWS V14.01,2013-09-18 14:20:00,
2013-09-18 10:21:00,57.8,47.7,30.32,West,264,0.0,0.0,69,0.00,,,0.00,VWS V14.01,2013-09-18 14:21:00,
2013-09-18 10:26:00,58.8,48.7,30.32,West,269,0.0,1.0,69,0.00,,,0.00,VWS V14.01,2013-09-18 14:26:00,
2013-09-18 10:30:00,59.7,48.7,30.32,WNW,297,0.0,4.0,67,0.00,,,0.00,VWS V14.01,2013-09-18 14:30:00,
2013-09-18 10:31:00,59.7,48.7,30.32,WNW,297,0.0,0.0,67,0.00,,,0.00,VWS V14.01,2013-09-18 14:31:00,
2013-09-18 10:36:00,60.4,49.0,30.32,WNW,286,0.0,5.0,66,0.00,,,0.00,VWS V14.01,2013-09-18 14:36:00,
2013-09-18 10:40:00,60.9,50.3,30.32,West,281,0.0,5.0,68,0.00,,,0.00,VWS V14.01,2013-09-18 14:40:00,
2013-09-18 10:41:00,60.9,50.3,30.32,West,281,0.0,5.0,68,0.00,,,0.00,VWS V14.01,2013-09-18 14:41:00,
2013-09-18 10:46:00,61.3,49.5,30.32,West,264,3.0,4.0,65,0.00,,,0.00,VWS V14.01,2013-09-18 14:46:00,
2013-09-18 10:50:00,61.9,50.4,30.32,West,269,0.0,4.0,66,0.00,,,0.00,VWS V14.01,2013-09-18 14:50:00,
2013-09-18 10:51:00,61.9,50.4,30.32,West,269,0.0,4.0,66,0.00,,,0.00,VWS V14.01,2013-09-18 14:51:00,
2013-09-18 10:56:00,62.2,49.0,30.32,WSW,257,1.0,5.0,62,0.00,,,0.00,VWS V14.01,2013-09-18 14:56:00,
2013-09-18 11:00:00,62.0,48.8,30.31,SW,233,2.0,5.0,62,0.00,,,0.00,VWS V14.01,2013-09-18 15:00:00,
2013-09-18 11:01:00,62.0,48.8,30.31,SW,233,2.0,5.0,62,0.00,,,0.00,VWS V14.01,2013-09-18 15:01:00,
2013-09-18 11:06:00,62.2,48.2,30.31,West,270,0.0,3.0,60,0.00,,,0.00,VWS V14.01,2013-09-18 15:06:00,
2013-09-18 11:10:00,62.6,49.0,30.31,NE,42,0.0,3.0,61,0.00,,,0.00,VWS V14.01,2013-09-18 15:10:00,
2013-09-18 11:11:00,62.7,49.1,30.31,NE,42,0.0,0.0,61,0.00,,,0.00,VWS V14.01,2013-09-18 15:11:00,
2013-09-18 11:16:00,63.4,47.5,30.30,WNW,294,0.0,2.0,56,0.00,,,0.00,VWS V14.01,2013-09-18 15:16:00,
2013-09-18 11:20:00,63.7,46.8,30.30,NNW,348,0.0,5.0,54,0.00,,,0.00,VWS V14.01,2013-09-18 15:20:00,
2013-09-18 11:21:00,63.7,47.2,30.30,NNW,342,2.0,2.0,55,0.00,,,0.00,VWS V14.01,2013-09-18 15:21:00,
2013-09-18 11:26:00,64.0,47.0,30.30,North,9,0.0,3.0,54,0.00,,,0.00,VWS V14.01,2013-09-18 15:26:00,
2013-09-18 11:30:00,64.4,46.9,30.30,WNW,282,1.0,5.0,53,0.00,,,0.00,VWS V14.01,2013-09-18 15:30:00,
2013-09-18 11:31:00,64.4,46.9,30.30,WNW,282,0.0,1.0,53,0.00,,,0.00,VWS V14.01,2013-09-18 15:31:00,
2013-09-18 11:36:00,64.5,46.0,30.30,West,274,0.0,5.0,51,0.00,,,0.00,VWS V14.01,2013-09-18 15:36:00,
2013-09-18 11:40:00,64.9,48.4,30.30,West,274,0.0,5.0,55,0.00,,,0.00,VWS V14.01,2013-09-18 15:40:00,
2013-09-18 11:41:00,64.9,48.4,30.30,West,274,0.0,0.0,55,0.00,,,0.00,VWS V14.01,2013-09-18 15:41:00,
2013-09-18 11:46:00,65.3,46.7,30.30,West,274,0.0,1.0,51,0.00,,,0.00,VWS V14.01,2013-09-18 15:46:00,
2013-09-18 11:50:00,65.3,46.7,30.30,NW,320,0.0,2.0,51,0.00,,,0.00,VWS V14.01,2013-09-18 15:50:00,
2013-09-18 11:52:00,65.3,46.7,30.30,NW,320,0.0,1.0,51,0.00,,,0.00,VWS V14.01,2013-09-18 15:52:00,
2013-09-18 11:57:00,65.4,47.3,30.30,NW,304,0.0,3.0,52,0.00,,,0.00,VWS V14.01,2013-09-18 15:57:00,
2013-09-18 12:00:00,65.2,46.1,30.29,WNW,299,2.0,3.0,50,0.00,,,0.00,VWS V14.01,2013-09-18 16:00:00,
2013-09-18 12:01:00,65.3,46.2,30.29,WNW,299,3.0,3.0,50,0.00,,,0.00,VWS V14.01,2013-09-18 16:01:00,
2013-09-18 12:06:00,64.9,46.4,30.29,WNW,288,0.0,3.0,51,0.00,,,0.00,VWS V14.01,2013-09-18 16:06:00,
2013-09-18 12:10:00,65.2,46.1,30.29,SE,134,0.0,3.0,50,0.00,,,0.00,VWS V14.01,2013-09-18 16:10:00,
2013-09-18 12:11:00,65.2,46.1,30.29,SE,134,0.0,3.0,50,0.00,,,0.00,VWS V14.01,2013-09-18 16:11:00,
2013-09-18 12:16:00,65.1,45.5,30.28,SSE,161,1.0,3.0,49,0.00,,,0.00,VWS V14.01,2013-09-18 16:16:00,
2013-09-18 12:20:00,65.0,45.9,30.28,SE,129,1.0,4.0,50,0.00,,,0.00,VWS V14.01,2013-09-18 16:20:00,
2013-09-18 12:21:00,65.0,46.5,30.28,SE,129,0.0,4.0,51,0.00,,,0.00,VWS V14.01,2013-09-18 16:21:00,
2013-09-18 12:26:00,64.9,44.8,30.28,West,269,2.0,3.0,48,0.00,,,0.00,VWS V14.01,2013-09-18 16:26:00,
2013-09-18 12:30:00,64.7,44.0,30.28,SSW,192,0.0,3.0,47,0.00,,,0.00,VWS V14.01,2013-09-18 16:30:00,
2013-09-18 12:31:00,64.7,44.0,30.28,SSW,192,0.0,3.0,47,0.00,,,0.00,VWS V14.01,2013-09-18 16:31:00,
2013-09-18 12:36:00,64.5,46.0,30.28,West,278,4.0,7.0,51,0.00,,,0.00,VWS V14.01,2013-09-18 16:36:00,
2013-09-18 12:40:00,64.2,46.2,30.28,West,279,0.0,7.0,52,0.00,,,0.00,VWS V14.01,2013-09-18 16:40:00,
2013-09-18 12:41:00,64.2,46.2,30.28,West,279,0.0,7.0,52,0.00,,,0.00,VWS V14.01,2013-09-18 16:41:00,
2013-09-18 12:46:00,64.2,46.7,30.28,SSE,159,1.0,2.0,53,0.00,,,0.00,VWS V14.01,2013-09-18 16:46:00,
2013-09-18 12:50:00,64.2,45.7,30.28,SSE,157,0.0,3.0,51,0.00,,,0.00,VWS V14.01,2013-09-18 16:50:00,
2013-09-18 12:51:00,64.2,46.2,30.28,SSE,157,0.0,3.0,52,0.00,,,0.00,VWS V14.01,2013-09-18 16:51:00,
2013-09-18 12:56:00,64.1,46.1,30.28,South,186,0.0,2.0,52,0.00,,,0.00,VWS V14.01,2013-09-18 16:56:00,
2013-09-18 13:00:00,64.0,46.5,30.27,South,186,0.0,2.0,53,0.00,,,0.00,VWS V14.01,2013-09-18 17:00:00,
2013-09-18 13:01:00,64.0,46.5,30.27,South,186,0.0,2.0,53,0.00,,,0.00,VWS V14.01,2013-09-18 17:01:00,
2013-09-18 13:06:00,64.0,46.5,30.27,South,184,3.0,3.0,53,0.00,,,0.00,VWS V14.01,2013-09-18 17:06:00,
2013-09-18 13:10:00,64.0,46.0,30.27,South,182,0.0,3.0,52,0.00,,,0.00,VWS V14.01,2013-09-18 17:10:00,
2013-09-18 13:11:00,64.0,46.0,30.27,South,182,0.0,3.0,52,0.00,,,0.00,VWS V14.01,2013-09-18 17:11:00,
2013-09-18 13:16:00,64.0,46.5,30.27,South,182,1.0,3.0,53,0.00,,,0.00,VWS V14.01,2013-09-18 17:16:00,
2013-09-18 13:20:00,64.0,46.5,30.27,South,182,0.0,4.0,53,0.00,,,0.00,VWS V14.01,2013-09-18 17:20:00,
2013-09-18 13:21:00,64.0,46.5,30.27,South,182,0.0,4.0,53,0.00,,,0.00,VWS V14.01,2013-09-18 17:21:00,
2013-09-18 13:26:00,64.0,46.0,30.27,SE,145,1.0,5.0,52,0.00,,,0.00,VWS V14.01,2013-09-18 17:26:00,
2013-09-18 13:30:00,64.1,47.1,30.26,SE,138,0.0,5.0,54,0.00,,,0.00,VWS V14.01,2013-09-18 17:30:00,
2013-09-18 13:32:00,64.1,47.1,30.26,SE,138,0.0,0.0,54,0.00,,,0.00,VWS V14.01,2013-09-18 17:32:00,
2013-09-18 13:37:00,64.1,46.6,30.26,SSE,159,1.0,3.0,53,0.00,,,0.00,VWS V14.01,2013-09-18 17:37:00,
2013-09-18 13:40:00,64.2,46.7,30.26,SE,126,0.0,3.0,53,0.00,,,0.00,VWS V14.01,2013-09-18 17:40:00,
2013-09-18 13:42:00,64.2,47.2,30.26,SE,126,0.0,1.0,54,0.00,,,0.00,VWS V14.01,2013-09-18 17:42:00,
2013-09-18 13:47:00,64.2,46.2,30.25,West,275,4.0,4.0,52,0.00,,,0.00,VWS V14.01,2013-09-18 17:47:00,
2013-09-18 13:50:00,64.2,46.2,30.25,SE,144,0.0,5.0,52,0.00,,,0.00,VWS V14.01,2013-09-18 17:50:00,
2013-09-18 13:52:00,64.2,46.2,30.25,SE,144,0.0,1.0,52,0.00,,,0.00,VWS V14.01,2013-09-18 17:52:00,
2013-09-18 13:57:00,64.2,46.2,30.25,South,180,0.0,4.0,52,0.00,,,0.00,VWS V14.01,2013-09-18 17:57:00,
2013-09-18 14:00:00,64.3,45.8,30.25,South,186,0.0,4.0,51,0.00,,,0.00,VWS V14.01,2013-09-18 18:00:00,
2013-09-18 14:02:00,64.3,45.8,30.25,South,186,0.0,0.0,51,0.00,,,0.00,VWS V14.01,2013-09-18 18:02:00,
2013-09-18 14:07:00,64.4,45.4,30.25,West,266,1.0,4.0,50,0.00,,,0.00,VWS V14.01,2013-09-18 18:07:00,
2013-09-18 14:10:00,64.4,44.3,30.25,West,270,1.0,4.0,48,0.00,,,0.00,VWS V14.01,2013-09-18 18:10:00,
2013-09-18 14:12:00,64.4,44.3,30.25,West,270,0.0,1.0,48,0.00,,,0.00,VWS V14.01,2013-09-18 18:12:00,
2013-09-18 14:17:00,64.5,45.5,30.25,West,275,0.0,3.0,50,0.00,,,0.00,VWS V14.01,2013-09-18 18:17:00,
2013-09-18 14:20:00,64.5,44.4,30.25,South,191,2.0,3.0,48,0.00,,,0.00,VWS V14.01,2013-09-18 18:20:00,
2013-09-18 14:22:00,64.5,44.4,30.25,WNW,282,1.0,4.0,48,0.00,,,0.00,VWS V14.01,2013-09-18 18:22:00,
2013-09-18 14:27:00,64.6,45.6,30.25,WNW,282,2.0,4.0,50,0.00,,,0.00,VWS V14.01,2013-09-18 18:27:00,
2013-09-18 14:30:00,64.8,46.8,30.24,West,273,0.0,4.0,52,0.00,,,0.00,VWS V14.01,2013-09-18 18:30:00,
2013-09-18 14:32:00,64.8,46.8,30.24,West,273,0.0,2.0,52,0.00,,,0.00,VWS V14.01,2013-09-18 18:32:00,
2013-09-18 14:37:00,64.9,46.4,30.24,NNW,342,0.0,4.0,51,0.00,,,0.00,VWS V14.01,2013-09-18 18:37:00,
2013-09-18 14:40:00,65.0,46.5,30.24,West,277,0.0,6.0,51,0.00,,,0.00,VWS V14.01,2013-09-18 18:40:00,
2013-09-18 14:42:00,65.0,46.5,30.24,West,277,2.0,2.0,51,0.00,,,0.00,VWS V14.01,2013-09-18 18:42:00,
2013-09-18 14:48:00,65.1,46.5,30.24,WNW,285,3.0,4.0,51,0.00,,,0.00,VWS V14.01,2013-09-18 18:48:00,
2013-09-18 14:50:00,65.2,47.2,30.24,WNW,285,1.0,4.0,52,0.00,,,0.00,VWS V14.01,2013-09-18 18:50:00,
2013-09-18 14:53:00,65.2,46.6,30.24,SSE,164,2.0,3.0,51,0.00,,,0.00,VWS V14.01,2013-09-18 18:53:00,
2013-09-18 14:58:00,65.3,47.8,30.24,West,269,2.0,5.0,53,0.00,,,0.00,VWS V14.01,2013-09-18 18:58:00,
2013-09-18 15:00:00,65.4,47.3,30.23,West,281,0.0,5.0,52,0.00,,,0.00,VWS V14.01,2013-09-18 19:00:00,
2013-09-18 15:03:00,65.4,47.3,30.23,WNW,288,0.0,4.0,52,0.00,,,0.00,VWS V14.01,2013-09-18 19:03:00,
2013-09-18 15:08:00,65.5,46.9,30.23,WNW,286,0.0,4.0,51,0.00,,,0.00,VWS V14.01,2013-09-18 19:08:00,
2013-09-18 15:10:00,65.6,47.0,30.23,ESE,118,0.0,4.0,51,0.00,,,0.00,VWS V14.01,2013-09-18 19:10:00,
2013-09-18 15:13:00,65.6,47.0,30.23,ESE,118,0.0,0.0,51,0.00,,,0.00,VWS V14.01,2013-09-18 19:13:00,
2013-09-18 15:18:00,65.6,47.0,30.22,West,276,0.0,4.0,51,0.00,,,0.00,VWS V14.01,2013-09-18 19:18:00,
2013-09-18 15:20:00,65.7,48.1,30.22,West,273,1.0,4.0,53,0.00,,,0.00,VWS V14.01,2013-09-18 19:20:00,
2013-09-18 15:23:00,65.7,47.6,30.22,South,178,0.0,2.0,52,0.00,,,0.00,VWS V14.01,2013-09-18 19:23:00,
2013-09-18 15:28:00,65.8,47.2,30.22,SE,129,0.0,3.0,51,0.00,,,0.00,VWS V14.01,2013-09-18 19:28:00,
2013-09-18 15:30:00,65.8,47.2,30.22,SE,129,0.0,3.0,51,0.00,,,0.00,VWS V14.01,2013-09-18 19:30:00,
2013-09-18 15:33:00,65.8,47.2,30.22,WSW,252,1.0,1.0,51,0.00,,,0.00,VWS V14.01,2013-09-18 19:33:00,
2013-09-18 15:38:00,65.8,45.0,30.22,West,275,0.0,4.0,47,0.00,,,0.00,VWS V14.01,2013-09-18 19:38:00,
2013-09-18 15:40:00,65.8,45.0,30.22,West,274,0.0,4.0,47,0.00,,,0.00,VWS V14.01,2013-09-18 19:40:00,
2013-09-18 15:43:00,65.8,46.1,30.22,West,274,0.0,0.0,49,0.00,,,0.00,VWS V14.01,2013-09-18 19:43:00,
2013-09-18 15:48:00,65.9,46.2,30.22,West,274,1.0,4.0,49,0.00,,,0.00,VWS V14.01,2013-09-18 19:48:00,
2013-09-18 15:50:00,66.0,46.8,30.22,West,278,1.0,4.0,50,0.00,,,0.00,VWS V14.01,2013-09-18 19:50:00,
2013-09-18 15:53:00,66.0,46.3,30.22,West,278,0.0,2.0,49,0.00,,,0.00,VWS V14.01,2013-09-18 19:53:00,
2013-09-18 15:58:00,66.2,46.0,30.22,NW,306,0.0,4.0,48,0.00,,,0.00,VWS V14.01,2013-09-18 19:58:00,
2013-09-18 16:00:00,66.3,45.5,30.21,NW,312,0.0,4.0,47,0.00,,,0.00,VWS V14.01,2013-09-18 20:00:00,
2013-09-18 16:03:00,66.4,46.1,30.21,WNW,300,2.0,3.0,48,0.00,,,0.00,VWS V14.01,2013-09-18 20:03:00,
2013-09-18 16:08:00,66.5,47.3,30.21,WNW,300,0.0,3.0,50,0.00,,,0.00,VWS V14.01,2013-09-18 20:08:00,
2013-09-18 16:10:00,66.5,47.3,30.21,WNW,300,0.0,3.0,50,0.00,,,0.00,VWS V14.01,2013-09-18 20:10:00,
2013-09-18 16:13:00,66.5,47.3,30.21,WNW,300,2.0,3.0,50,0.00,,,0.00,VWS V14.01,2013-09-18 20:13:00,
2013-09-18 16:20:00,66.4,43.8,30.20,WNW,292,0.0,3.0,44,0.00,,,0.00,VWS V14.01,2013-09-18 20:20:00,
2013-09-18 16:30:00,66.3,46.6,30.20,WNW,292,0.0,3.0,49,0.00,,,0.00,VWS V14.01,2013-09-18 20:30:00,
2013-09-18 16:40:00,66.5,47.8,30.20,WNW,292,1.0,5.0,51,0.00,,,0.00,VWS V14.01,2013-09-18 20:40:00,
2013-09-18 16:50:00,66.8,47.0,30.20,NW,315,0.0,4.0,49,0.00,,,0.00,VWS V14.01,2013-09-18 20:50:00,
2013-09-18 17:00:00,67.6,47.8,30.20,WNW,292,1.0,4.0,49,0.00,,,0.00,VWS V14.01,2013-09-18 21:00:00,
2013-09-18 17:10:00,68.5,47.5,30.20,NW,315,1.0,3.0,47,0.00,,,0.00,VWS V14.01,2013-09-18 21:10:00,
2013-09-18 17:20:00,68.6,48.2,30.20,NW,315,0.0,2.0,48,0.00,,,0.00,VWS V14.01,2013-09-18 21:20:00,
2013-09-18 17:30:00,68.9,49.0,30.20,NW,315,0.0,2.0,49,0.00,,,0.00,VWS V14.01,2013-09-18 21:30:00,
2013-09-18 17:40:00,68.9,49.0,30.20,NW,315,0.0,4.0,49,0.00,,,0.00,VWS V14.01,2013-09-18 21:40:00,
2013-09-18 17:50:00,68.4,48.5,30.20,West,270,0.0,4.0,49,0.00,,,0.00,VWS V14.01,2013-09-18 21:50:00,
2013-09-18 18:00:00,67.7,48.9,30.20,West,270,0.0,2.0,51,0.00,,,0.00,VWS V14.01,2013-09-18 22:00:00,
2013-09-18 18:10:00,66.9,49.2,30.20,West,270,0.0,2.0,53,0.00,,,0.00,VWS V14.01,2013-09-18 22:10:00,
2013-09-18 18:20:00,66.0,48.4,30.20,West,270,0.0,1.0,53,0.00,,,0.00,VWS V14.01,2013-09-18 22:20:00,
2013-09-18 18:30:00,65.0,49.9,30.19,West,270,0.0,0.0,58,0.00,,,0.00,VWS V14.01,2013-09-18 22:30:00,
2013-09-18 18:40:00,64.1,50.0,30.19,West,270,0.0,0.0,60,0.00,,,0.00,VWS V14.01,2013-09-18 22:40:00,
2013-09-18 18:50:00,63.1,50.3,30.19,West,270,0.0,0.0,63,0.00,,,0.00,VWS V14.01,2013-09-18 22:50:00,
2013-09-18 19:00:00,62.1,50.6,30.19,West,270,0.0,0.0,66,0.00,,,0.00,VWS V14.01,2013-09-18 23:00:00,
2013-09-18 19:10:00,61.0,50.4,30.19,West,270,0.0,0.0,68,0.00,,,0.00,VWS V14.01,2013-09-18 23:10:00,
2013-09-18 19:20:00,59.9,50.1,30.19,West,270,0.0,0.0,70,0.00,,,0.00,VWS V14.01,2013-09-18 23:20:00,
2013-09-18 19:30:00,58.9,49.9,30.19,West,270,0.0,0.0,72,0.00,,,0.00,VWS V14.01,2013-09-18 23:30:00,
2013-09-18 19:40:00,57.8,49.6,30.19,West,270,0.0,0.0,74,0.00,,,0.00,VWS V14.01,2013-09-18 23:40:00,
2013-09-18 19:50:00,56.9,49.4,30.20,West,270,0.0,0.0,76,0.00,,,0.00,VWS V14.01,2013-09-18 23:50:00,
2013-09-18 20:00:00,56.0,49.2,30.20,West,270,0.0,0.0,78,0.00,,,0.00,VWS V14.01,2013-09-19 00:00:00,
2013-09-18 20:10:00,55.3,49.2,30.20,West,270,0.0,0.0,80,0.00,,,0.00,VWS V14.01,2013-09-19 00:10:00,
2013-09-18 20:20:00,54.7,49.0,30.20,West,270,0.0,0.0,81,0.00,,,0.00,VWS V14.01,2013-09-19 00:20:00,
2013-09-18 20:30:00,54.1,48.7,30.20,West,270,0.0,0.0,82,0.00,,,0.00,VWS V14.01,2013-09-19 00:30:00,
2013-09-18 20:40:00,53.5,48.5,30.20,West,270,0.0,0.0,83,0.00,,,0.00,VWS V14.01,2013-09-19 00:40:00,
2013-09-18 20:50:00,53.1,48.4,30.20,West,270,0.0,0.0,84,0.00,,,0.00,VWS V14.01,2013-09-19 00:50:00,
2013-09-18 21:00:00,52.6,48.2,30.20,West,270,0.0,0.0,85,0.00,,,0.00,VWS V14.01,2013-09-19 01:00:00,
2013-09-18 21:10:00,52.3,47.9,30.20,West,270,0.0,0.0,85,0.00,,,0.00,VWS V14.01,2013-09-19 01:10:00,
2013-09-18 21:20:00,51.9,47.5,30.20,West,270,0.0,0.0,85,0.00,,,0.00,VWS V14.01,2013-09-19 01:20:00,
2013-09-18 21:30:00,51.6,47.6,30.19,West,270,0.0,0.0,86,0.00,,,0.00,VWS V14.01,2013-09-19 01:30:00,
2013-09-18 21:40:00,51.2,47.5,30.19,West,270,0.0,0.0,87,0.00,,,0.00,VWS V14.01,2013-09-19 01:40:00,
2013-09-18 21:50:00,50.9,47.2,30.19,West,270,0.0,0.0,87,0.00,,,0.00,VWS V14.01,2013-09-19 01:50:00,
2013-09-18 22:00:00,50.6,47.2,30.20,West,270,0.0,0.0,88,0.00,,,0.00,VWS V14.01,2013-09-19 02:00:00,
2013-09-18 22:10:00,50.4,47.0,30.20,West,270,0.0,0.0,88,0.00,,,0.00,VWS V14.01,2013-09-19 02:10:00,
2013-09-18 22:20:00,50.2,46.8,30.20,West,270,0.0,0.0,88,0.00,,,0.00,VWS V14.01,2013-09-19 02:20:00,
2013-09-18 22:30:00,50.0,46.9,30.19,West,270,0.0,0.0,89,0.00,,,0.00,VWS V14.01,2013-09-19 02:30:00,
2013-09-18 22:40:00,49.8,46.7,30.19,West,270,0.0,0.0,89,0.00,,,0.00,VWS V14.01,2013-09-19 02:40:00,
2013-09-18 22:50:00,49.6,46.5,30.20,West,270,0.0,0.0,89,0.00,,,0.00,VWS V14.01,2013-09-19 02:50:00,
2013-09-18 23:00:00,49.4,46.3,30.19,West,270,0.0,0.0,89,0.00,,,0.00,VWS V14.01,2013-09-19 03:00:00,
2013-09-18 23:10:00,49.3,46.5,30.19,West,270,0.0,0.0,90,0.00,,,0.00,VWS V14.01,2013-09-19 03:10:00,
2013-09-18 23:20:00,49.1,46.3,30.20,West,270,0.0,0.0,90,0.00,,,0.00,VWS V14.01,2013-09-19 03:20:00,
2013-09-18 23:30:00,49.0,46.2,30.20,West,270,0.0,0.0,90,0.00,,,0.00,VWS V14.01,2013-09-19 03:30:00,
2013-09-18 23:40:00,48.8,46.0,30.20,West,270,0.0,0.0,90,0.00,,,0.00,VWS V14.01,2013-09-19 03:40:00,
2013-09-18 23:50:00,48.6,45.8,30.20,West,270,0.0,0.0,90,0.00,,,0.00,VWS V14.01,2013-09-19 03:50:00,